Winnemucca, NV

11:17 AM PDT on May 23, 2017 (GMT -0700)
Winnemucca Municipal

Weather History for KWMC - May, 2014

Change the Weather History Date:

Thursday, May 29, 2014

  Actual Average Record
Temperature  
Mean Temperature 54 °F 59 °F  
Max Temperature 73 °F 76 °F 98 °F (2003)
Min Temperature 34 °F 41 °F 26 °F (1989)
Degree Days  
Heating Degree Days 11 7  
Month to date heating degree days 270 306  
Since 1 July heating degree days 6157 6186  
Cooling Degree Days 0 1  
Month to date cooling degree days 9 7  
Year to date cooling degree days 9 7  
Growing Degree Days 4 (Base 50)    
Moisture  
Dew Point 16 °F    
Average Humidity 28    
Maximum Humidity 47    
Minimum Humidity 9    
Precipitation  
Precipitation 0.00 in 0.03 in 0.47 in (1896)
Month to date precipitation 0.74 1.06  
Year to date precipitation 3.92 4.31  
Snow  
Snow 0.00 in 0.00 in T in (2011)
Month to date snowfall 0.0 0.1  
Since 1 July snowfall 23.4 20.9  
Snow Depth 0.00 in    
Sea Level Pressure  
Sea Level Pressure 30.03 in    
Wind  
Wind Speed 9 mph (North)    
Max Wind Speed 21 mph    
Max Gust Speed 28 mph    
Visibility 10 miles    
Events      
T = Trace of Precipitation, MM = Missing Value Source: NWS Daily Summary

Daily Weather History Graph

Daily Weather History Graph

Search for Another Location

Airport or City:

Trip Planner

Search our weather history database for the weather conditions in past years. The results will help you decide how hot, cold, wet, or windy it might be!

Date:

Astronomy

May. 29, 2014 Rise Set
Actual Time 5:23 AM PDT 8:14 PM PDT
Civil Twilight 4:50 AM PDT 8:47 PM PDT
Nautical Twilight 4:09 AM PDT 9:28 PM PDT
Astronomical Twilight 3:22 AM PDT 10:15 PM PDT
Moon 6:20 AM PDT (5/29) 9:08 PM PDT (5/29)
Length of Visible Light 15h 56m
Length of Day
14h 51m
New Moon, 1% of the Moon is Illuminated
May 29
New Moon
Jun 5
First Quarter
Jun 12
Full
Jun 19
Last Quarter
Jun 27
New

Hourly Weather History & Observations

Time (PDT) Temp. Windchill Dew Point Humidity Pressure Visibility Wind Dir Wind Speed Gust Speed Precip Events Conditions
12:56 AM 48.0 °F - 17.1 °F 29% 30.04 in 10.0 mi NNE 13.8 mph - N/A   Clear
1:56 AM 46.9 °F - 16.0 °F 29% 30.04 in 10.0 mi NNE 16.1 mph 23.0 mph N/A   Clear
2:56 AM 44.1 °F 39.5 °F 16.0 °F 32% 30.06 in 10.0 mi NW 8.1 mph - N/A   Clear
3:56 AM 44.1 °F 40.1 °F 16.0 °F 32% 30.07 in 10.0 mi North 6.9 mph - N/A   Clear
4:56 AM 39.0 °F 34.8 °F 16.0 °F 39% 30.09 in 10.0 mi NW 5.8 mph - N/A   Clear
5:56 AM 35.1 °F 30.1 °F 17.1 °F 48% 30.12 in 10.0 mi WNW 5.8 mph - N/A   Clear
6:56 AM 46.0 °F 39.6 °F 21.0 °F 37% 30.10 in 10.0 mi NE 15.0 mph - N/A   Clear
7:56 AM 50.0 °F - 23.0 °F 35% 30.10 in 10.0 mi NE 16.1 mph 24.2 mph N/A   Clear
8:56 AM 54.0 °F - 23.0 °F 30% 30.12 in 10.0 mi NE 17.3 mph 24.2 mph N/A   Clear
9:56 AM 57.9 °F - 19.9 °F 23% 30.09 in 10.0 mi NNE 17.3 mph 25.3 mph N/A   Clear
10:56 AM 62.1 °F - 18.0 °F 18% 30.07 in 10.0 mi NE 13.8 mph - N/A   Clear
11:56 AM 64.0 °F - 16.0 °F 16% 30.05 in 10.0 mi Variable 6.9 mph 20.7 mph N/A   Clear
12:56 PM 66.0 °F - 17.1 °F 15% 30.04 in 10.0 mi NW 8.1 mph - N/A   Clear
1:56 PM 69.1 °F - 16.0 °F 13% 30.02 in 10.0 mi Variable 5.8 mph - N/A   Clear
2:56 PM 69.1 °F - 15.1 °F 13% 30.01 in 10.0 mi East 5.8 mph - N/A   Clear
3:56 PM 72.0 °F - 12.9 °F 10% 29.98 in 10.0 mi Variable 4.6 mph - N/A   Clear
4:56 PM 72.0 °F - 12.0 °F 10% 29.97 in 10.0 mi North 6.9 mph - N/A   Clear
5:56 PM 73.0 °F - 12.0 °F 10% 29.96 in 10.0 mi NNE 10.4 mph - N/A   Clear
6:56 PM 70.0 °F - 12.0 °F 11% 29.94 in 10.0 mi NNE 6.9 mph - N/A   Clear
7:56 PM 66.9 °F - 12.0 °F 12% 29.94 in 10.0 mi NNE 6.9 mph - N/A   Clear
8:56 PM 55.9 °F - 15.1 °F 20% 29.96 in 10.0 mi North 3.5 mph - N/A   Clear
9:56 PM 45.0 °F 42.6 °F 14.0 °F 29% 29.99 in 10.0 mi West 4.6 mph - N/A   Clear
10:56 PM 46.0 °F 43.9 °F 12.9 °F 26% 29.99 in 10.0 mi WNW 4.6 mph - N/A   Clear
11:56 PM 48.9 °F - 14.0 °F 25% 29.97 in 10.0 mi North 8.1 mph - N/A   Clear